Temp
-3 -3 -2 -2 -2 -1 -1 -1 0 2 1 1 1 2 2 1 2 2 3 4 4 4 4 4 4 4 4 4 4 3 3 2 2 2 2 2 3 2
-3 -3 -2 -2 -2 -2 -1 -1 -0 -0 -0 1 1 2 2 1 2 2 1 3 4 4 4 4 4 4 3 3 4 4 3 3 3 2 2 2 2 2
-4 -4 -3 -2 -1 -1 -1 -2 -1 -1 -1 0 0 1 1 2 1 1 1 3 3 4 4 4 4 4 3 3 4 4 4 3 2 2 2 2 2 2
-5 -5 -4 -3 -3 -2 -1 -1 -2 -1 -1 -1 -0 0 1 1 1 1 3 3 3 3 4 4 4 4 4 4 4 4 4 3 3 2 1 2 2 2
-5 -6 -5 -5 -4 -3 -2 -2 -3 -2 -1 -1 -1 -0 0 1 1 1 2 2 3 3 3 4 4 4 4 4 4 4 4 3 3 3 2 2 1 2
-6 -6 -6 -6 -5 -4 -3 -2 -2 -2 -2 -2 -1 -1 -1 -0 0 0 1 1 1 2 3 3 3 4 4 4 4 4 4 3 3 3 3 2 1 2
-7 -7 -7 -7 -5 -4 -4 -3 -2 -2 -2 -2 -2 -2 -2 -2 -0 -0 0 1 0 3 1 2 3 4 4 4 3 4 3 4 3 3 2 2 2 2
-8 -7 -7 -8 -7 -5 -4 -4 -3 -3 -3 -3 -4 -3 -2 -2 -1 -1 -0 -0 1 0 1 2 3 3 3 3 3 3 3 4 3 3 2 2 2 2
-8 -8 -8 -7 -8 -7 -7 -6 -5 -5 -5 -4 -3 -3 -2 -2 -1 -1 -1 -1 0 1 1 1 1 2 3 3 3 3 3 3 3 3 2 2 2 2
-9 -9 -9 -8 -7 -7 -8 -8 -8 -7 -5 -5 -5 -3 -3 -2 -1 -0 -1 -1 -1 -1 1 0 1 2 2 2 3 3 3 3 3 3 3 2 2 2
-9 -9 -9 -9 -9 -8 -8 -8 -8 -8 -8 -7 -5 -4 -4 -3 -3 -2 -1 -1 -1 -1 -0 -0 1 1 1 1 2 2 2 2 2 1 2 2 2 2
-10 -10 -9 -9 -9 -9 -9 -9 -9 -8 -9 -9 -9 -7 -7 -6 -5 -3 -3 -2 -2 -2 -2 -1 -0 1 2 1 1 1 1 1 1 1 1 2 2 2
-10 -9 -9 -10 -10 -9 -9 -9 -9 -9 -9 -9 -9 -9 -8 -6 -6 -6 -5 -4 -3 -2 -2 -2 -2 -2 -0 1 1 0 1 1 1 1 2 1 1 1
-10 -10 -10 -10 -11 -10 -10 -10 -10 -10 -9 -9 -9 -8 -8 -7 -7 -7 -6 -7 -6 -6 -5 -4 -3 -2 -3 -1 -0 1 1 1 1 1 1 1 0 1
-11 -11 -11 -11 -11 -11 -11 -10 -10 -10 -10 -9 -9 -8 -8 -7 -8 -7 -8 -7 -7 -6 -6 -6 -6 -5 -4 -3 -3 -3 -1 -2 0 1 1 1 1 1
-11 -11 -11 -11 -11 -11 -11 -10 -10 -10 -10 -10 -10 -10 -9 -9 -9 -9 -9 -8 -8 -8 -8 -7 -6 -6 -6 -6 -5 -4 -4 -3 -2 -2 -2 -0 -0 -0
-12 -12 -12 -12 -11 -11 -11 -11 -11 -11 -11 -11 -11 -10 -10 -10 -10 -9 -9 -9 -9 -8 -8 -8 -8 -8 -7 -6 -6 -6 -5 -5 -4 -4 -3 -3 -2 -2
-12 -12 -12 -12 -12 -12 -12 -12 -12 -12 -12 -12 -12 -12 -12 -12 -12 -12 -11 -11 -10 -10 -9 -9 -8 -8 -9 -9 -8 -6 -6 -6 -6 -5 -5 -4 -4 -4
-12 -12 -12 -12 -12 -13 -13 -13 -13 -13 -14 -14 -14 -14 -14 -13 -13 -13 -13 -13 -13 -12 -12 -12 -11 -10 -9 -8 -9 -9 -7 -6 -6 -5 -5 -5 -5 -4
-13 -13 -13 -13 -14 -14 -14 -14 -15 -15 -16 -16 -16 -16 -16 -16 -16 -16 -16 -15 -15 -15 -14 -14 -14 -13 -12 -11 -10 -10 -10 -9 -8 -7 -6 -6 -5 -4
-14 -14 -14 -15 -15 -15 -15 -16 -16 -17 -17 -17 -17 -18 -18 -18 -18 -18 -18 -17 -17 -17 -16 -15 -15 -15 -15 -14 -13 -13 -12 -12 -11 -9 -8 -7 -7 -6
-15 -15 -16 -16 -16 -16 -17 -17 -18 -18 -18 -19 -19 -19 -19 -19 -19 -19 -19 -19 -19 -18 -18 -18 -17 -17 -16 -16 -15 -15 -14 -13 -13 -12 -11 -10 -8 -7
-16 -16 -16 -17 -17 -18 -18 -19 -19 -20 -20 -20 -20 -20 -20 -20 -20 -20 -20 -20 -20 -20 -19 -19 -18 -18 -18 -18 -17 -16 -16 -15 -14 -13 -13 -12 -11 -10
Height
2958 2956 2954 2952 2952 2957 2964 2968 2976 2974 2974 2978 2984 2988 2991 2994 3001 3010 3016 3022 3027 3032 3037 3041 3044 3048 3052 3056 3058 3061 3063 3065 3067 3070 3073 3076 3079 3080
2950 2948 2946 2944 2944 2947 2951 2956 2962 2961 2960 2974 2976 2979 2984 2985 2993 2997 3004 3009 3015 3020 3025 3030 3034 3038 3041 3045 3048 3051 3054 3057 3059 3061 3063 3066 3069 3072
2946 2940 2938 2936 2936 2937 2939 2945 2950 2953 2954 2962 2966 2970 2973 2977 2980 2987 2991 2995 2999 3006 3012 3017 3022 3026 3030 3034 3038 3040 3044 3046 3049 3051 3053 3055 3059 3063
2941 2935 2931 2929 2928 2929 2931 2934 2937 2943 2946 2950 2955 2961 2964 2966 2970 2975 2969 2966 2986 2992 3000 3005 3010 3014 3018 3023 3027 3030 3033 3035 3037 3040 3042 3045 3050 3053
2937 2930 2925 2922 2921 2922 2923 2925 2928 2932 2937 2939 2944 2950 2954 2957 2958 2960 2960 2964 2967 2976 2984 2990 2995 3001 3007 3012 3015 3019 3022 3024 3026 3029 3032 3034 3038 3044
2937 2928 2922 2919 2917 2916 2917 2918 2921 2924 2927 2930 2935 2940 2944 2947 2946 2949 2951 2953 2949 2962 2969 2975 2981 2987 2993 2998 3003 3007 3011 3014 3015 3018 3022 3024 3029 3034
2938 2929 2921 2915 2912 2911 2910 2911 2913 2916 2917 2919 2923 2926 2929 2934 2936 2939 2938 2940 2943 2930 2954 2961 2967 2973 2978 2985 2990 2995 2999 3003 3004 3007 3012 3015 3019 3022
2939 2931 2925 2918 2912 2908 2906 2905 2905 2906 2909 2910 2913 2918 2920 2922 2925 2927 2925 2927 2933 2933 2936 2946 2951 2958 2966 2971 2979 2984 2989 2993 2995 2997 3002 3004 3008 3012
2939 2933 2926 2921 2916 2910 2905 2902 2901 2900 2900 2902 2905 2907 2909 2910 2914 2915 2915 2918 2920 2916 2924 2929 2936 2944 2953 2959 2966 2972 2977 2980 2984 2988 2991 2994 2997 3002
2939 2933 2927 2921 2917 2914 2909 2905 2901 2899 2895 2894 2896 2898 2900 2901 2902 2904 2904 2906 2908 2908 2908 2916 2923 2929 2938 2945 2953 2958 2964 2968 2972 2976 2979 2983 2986 2990
2939 2934 2929 2924 2918 2914 2911 2908 2903 2899 2896 2891 2890 2890 2892 2891 2891 2894 2895 2898 2900 2900 2901 2898 2899 2904 2920 2929 2937 2945 2950 2954 2957 2962 2965 2968 2972 2976
2941 2936 2930 2925 2921 2916 2912 2909 2905 2901 2897 2892 2890 2889 2887 2884 2883 2884 2886 2886 2886 2890 2893 2895 2895 2893 2905 2904 2917 2926 2933 2938 2942 2945 2949 2952 2955 2957
2941 2936 2931 2926 2922 2917 2913 2910 2905 2902 2898 2894 2890 2888 2886 2883 2880 2878 2879 2880 2878 2881 2882 2884 2886 2887 2882 2891 2894 2902 2910 2916 2921 2926 2930 2933 2938 2941
2941 2936 2932 2927 2923 2920 2916 2911 2906 2903 2900 2895 2892 2888 2885 2882 2877 2877 2875 2875 2874 2876 2874 2874 2873 2877 2878 2875 2883 2883 2889 2895 2899 2906 2909 2913 2917 2921
2942 2937 2933 2929 2924 2921 2917 2913 2909 2904 2899 2895 2891 2886 2882 2879 2877 2875 2875 2872 2870 2869 2868 2866 2866 2866 2865 2865 2868 2871 2872 2877 2875 2881 2886 2893 2899 2903
2943 2939 2934 2929 2924 2920 2916 2911 2905 2901 2896 2892 2889 2884 2880 2878 2875 2872 2870 2869 2868 2866 2862 2861 2861 2860 2860 2860 2859 2861 2862 2860 2863 2869 2871 2873 2879 2884
2940 2935 2931 2926 2922 2917 2912 2907 2902 2898 2893 2889 2884 2881 2878 2875 2871 2869 2866 2864 2861 2859 2857 2855 2853 2853 2851 2852 2854 2853 2852 2851 2852 2854 2855 2859 2862 2867
2938 2933 2928 2923 2918 2913 2908 2903 2898 2893 2887 2882 2878 2873 2869 2866 2865 2863 2859 2855 2853 2851 2849 2847 2845 2844 2843 2841 2843 2844 2843 2841 2841 2842 2844 2847 2851 2852
2934 2929 2923 2918 2913 2908 2903 2898 2893 2887 2882 2878 2874 2869 2865 2861 2856 2853 2851 2849 2847 2844 2840 2838 2837 2834 2834 2834 2836 2831 2830 2829 2829 2832 2832 2833 2836 2841
2928 2923 2918 2913 2908 2904 2899 2894 2889 2884 2879 2874 2869 2864 2860 2855 2852 2848 2844 2840 2837 2836 2834 2830 2827 2825 2823 2820 2821 2825 2818 2817 2818 2819 2820 2819 2822 2825
2924 2918 2913 2908 2903 2898 2893 2888 2883 2878 2873 2869 2864 2859 2855 2851 2847 2842 2839 2835 2831 2827 2824 2823 2821 2817 2813 2810 2809 2810 2811 2808 2808 2806 2805 2806 2809 2812
2916 2911 2906 2902 2897 2892 2887 2882 2877 2872 2867 2862 2858 2854 2850 2845 2841 2838 2834 2830 2826 2822 2819 2816 2813 2810 2807 2803 2800 2800 2800 2800 2797 2796 2794 2792 2794 2796
2909 2904 2898 2893 2889 2884 2879 2875 2870 2866 2861 2857 2852 2847 2843 2839 2835 2831 2828 2824 2820 2816 2812 2809 2807 2803 2800 2796 2794 2791 2791 2789 2788 2785 2785 2782 2781 2782
Wind_Speed
37 35 35 39 44 52 59 47 50 43 64 50 59 49 48 53 40 45 51 50 47 48 47 47 47 45 43 42 41 41 35 36 39 41 41 36 34 31
34 33 35 37 41 44 52 57 59 62 37 43 46 45 42 50 51 52 52 47 46 49 51 50 50 49 45 44 43 43 44 40 38 40 39 40 37 36
30 29 32 35 38 41 45 55 64 52 47 47 40 41 39 43 45 49 65 52 51 50 53 53 54 52 49 46 46 44 43 43 42 44 45 41 40 38
27 25 26 29 34 37 41 48 55 60 59 51 50 46 43 39 43 51 48 51 61 57 54 53 55 56 53 49 49 43 43 44 43 45 39 43 41 40
30 27 24 25 28 32 38 43 47 53 52 58 50 47 47 46 45 48 67 49 68 65 55 53 57 57 55 51 49 44 44 43 42 42 43 45 44 39
32 30 25 19 21 23 29 39 43 45 37 46 53 55 52 47 48 46 51 51 60 62 61 56 53 53 52 50 49 46 45 43 42 42 41 37 39 41
27 30 31 25 17 18 21 26 39 46 53 42 47 42 46 48 47 45 54 50 52 46 70 54 56 54 53 51 50 48 46 43 40 42 43 40 39 40
21 23 26 26 21 17 18 20 23 34 46 51 49 44 54 51 50 49 50 40 53 66 47 53 55 57 54 51 49 46 44 43 40 42 44 44 43 41
18 19 19 23 23 17 15 18 20 22 27 39 48 48 48 46 51 53 56 55 39 33 63 60 54 57 59 56 52 48 45 43 42 41 45 44 45 44
17 18 19 19 19 22 20 17 13 10 10 22 33 40 43 44 47 52 56 53 55 42 52 59 63 57 59 60 55 51 49 47 47 44 46 47 47 47
15 14 14 16 18 19 19 20 21 16 17 8 7 20 30 33 38 44 52 50 50 50 47 57 52 62 54 57 55 54 51 50 50 51 52 52 54 54
18 18 18 18 19 18 17 17 19 17 16 15 16 11 9 14 23 34 32 38 43 42 44 52 59 47 54 53 58 55 54 54 56 57 58 58 59 61
22 22 23 24 24 23 23 21 20 19 18 20 17 15 17 14 14 14 13 20 29 41 44 44 46 48 42 48 68 72 66 60 61 61 62 65 63 63
25 26 26 27 27 26 24 23 22 20 18 16 15 13 13 14 16 21 19 18 14 16 20 27 33 44 39 50 65 45 56 62 63 64 68 64 65 62
27 28 28 27 27 26 24 23 21 19 19 18 17 17 16 14 15 16 18 19 22 23 23 22 21 23 33 38 38 44 56 49 63 66 65 66 68 69
25 25 25 25 25 25 24 25 25 24 23 22 20 20 20 18 18 19 17 18 18 20 24 27 29 27 24 27 29 34 37 41 58 54 55 63 67 66
29 29 29 29 29 29 29 30 29 28 26 24 23 22 21 21 22 22 21 22 22 22 22 23 26 27 29 29 29 33 36 32 34 39 45 50 55 58
31 30 30 30 31 31 32 32 32 32 32 32 33 33 33 30 25 23 26 27 27 25 25 27 27 25 25 28 31 33 33 34 37 37 38 42 41 43
33 33 32 33 33 34 35 35 35 35 35 34 33 33 32 32 33 32 30 28 27 28 28 28 29 31 30 30 27 32 36 35 35 36 38 43 39 39
37 36 35 35 35 35 35 35 34 34 33 33 32 33 33 33 32 31 31 33 33 30 28 30 31 30 32 34 32 28 30 34 36 35 36 37 38 37
36 35 35 35 35 36 37 37 36 36 34 33 32 32 32 31 31 32 32 32 32 33 33 30 30 31 33 34 34 31 29 31 32 36 37 39 38 38
39 37 36 35 35 36 36 36 35 35 34 33 32 31 30 31 31 31 32 32 32 32 32 32 32 32 31 34 35 34 32 30 31 31 33 36 38 38
39 38 38 38 37 37 36 35 34 33 32 32 32 31 31 31 31 31 31 31 32 32 33 32 31 30 31 32 32 32 31 30 30 30 30 30 33 34
Wind_Direction
296 281 267 259 251 241 229 236 241 260 252 250 252 261 258 238 241 239 238 239 242 241 237 241 245 246 249 251 249 251 260 265 249 247 248 249 249 251
302 285 271 265 258 251 243 234 233 252 257 251 262 262 252 245 246 254 240 240 241 244 241 238 242 245 245 249 252 253 255 262 261 250 246 245 246 248
313 295 278 267 261 255 249 237 233 249 254 255 253 258 257 253 250 244 239 242 241 243 242 239 238 240 244 247 252 254 258 258 260 255 252 247 244 247
324 317 289 275 264 257 250 245 241 246 247 259 255 254 252 253 256 239 234 227 237 243 242 239 237 240 244 245 251 256 257 262 259 249 251 241 243 245
344 338 316 287 274 263 255 249 247 246 251 251 254 252 251 251 257 254 242 245 235 240 238 236 235 238 243 245 248 252 254 259 253 249 247 237 236 240
353 352 342 311 292 276 265 255 250 239 252 242 252 252 251 251 252 257 250 245 249 242 236 232 232 234 236 238 243 248 251 255 251 245 243 238 234 248
357 2 359 348 320 291 277 265 253 245 250 256 241 247 253 250 250 257 249 249 257 246 232 237 233 232 233 236 240 244 248 252 251 243 240 242 242 245
352 7 7 359 345 321 300 283 272 255 246 261 258 249 250 252 252 249 244 263 257 247 247 231 229 233 233 235 240 245 250 253 255 244 242 241 242 242
351 356 13 12 5 354 339 307 286 279 263 251 250 259 259 260 251 255 255 261 242 246 239 235 233 233 237 238 239 243 247 250 251 248 243 242 241 241
359 359 0 10 11 11 14 19 10 327 270 259 255 252 254 260 263 263 258 259 256 262 243 244 249 234 238 241 240 241 244 247 248 245 245 245 244 244
15 15 14 10 14 14 8 358 5 19 23 30 286 262 262 267 269 263 264 265 253 260 253 255 242 244 240 239 240 240 241 244 244 244 244 246 248 250
25 25 28 28 26 22 13 5 357 1 11 23 12 3 323 298 276 264 269 266 264 267 242 242 236 219 227 229 235 238 236 241 244 245 244 246 249 250
20 21 22 21 19 15 11 9 12 5 353 351 351 354 344 339 331 314 293 272 268 266 258 256 255 253 224 231 229 233 236 236 238 243 245 244 250 251
13 14 14 13 11 7 3 2 359 357 353 351 343 328 321 326 330 319 318 321 303 286 269 266 263 261 254 234 228 227 231 232 235 236 237 244 241 246
7 6 5 4 2 359 356 354 350 347 348 346 342 342 340 329 325 318 312 309 306 304 302 291 280 275 263 259 252 242 231 234 227 229 236 239 245 250
1 0 359 358 356 353 350 348 347 345 344 343 343 341 337 329 322 321 316 304 300 294 291 291 291 290 291 278 266 261 258 252 242 246 241 242 245 246
354 353 351 349 348 347 346 347 346 346 345 343 340 336 331 325 321 314 309 305 302 293 287 285 282 278 278 279 284 283 270 261 257 258 259 254 248 249
346 345 343 342 341 342 342 343 342 342 341 341 340 338 336 333 329 319 314 310 304 301 293 288 281 274 275 277 271 269 272 270 267 263 259 257 256 250
340 338 338 338 338 338 338 338 339 339 339 338 336 334 332 329 326 324 322 317 310 308 305 300 291 288 276 266 264 271 268 266 265 261 262 263 259 256
335 334 334 334 334 334 334 334 334 334 334 334 333 332 331 330 328 326 324 321 318 313 308 306 305 299 294 288 278 269 276 271 267 262 258 259 255 255
331 330 330 330 330 330 331 332 331 331 331 331 330 328 328 327 327 327 326 324 320 317 314 309 305 303 302 297 292 286 283 284 278 270 264 260 258 255
328 328 327 327 327 328 328 328 328 328 328 327 326 326 325 325 325 325 323 322 320 318 315 314 310 304 301 298 296 293 288 284 285 280 273 268 265 261
323 323 324 325 326 326 326 326 326 326 325 324 324 324 324 323 323 324 323 321 319 317 314 311 307 306 305 300 296 294 294 292 289 286 280 276 270 265